AO-07 1 07530U 74089B 21147.36685052 -.00000053 00000-0 -44252-4 0 9994 2 07530 101.8528 121.8930 0012648 63.3050 105.8874 12.53648866129086 UO-11 1 14781U 84021B 21147.14453592 .00000074 00000-0 15108-4 0 9994 2 14781 97.5926 148.0360 0009301 143.1306 217.0550 14.83286693982777 LO-19 1 20442U 90005G 21147.33045552 .00000003 00000-0 17832-4 0 9996 2 20442 98.7401 102.6060 0010945 219.1929 140.8463 14.32987070637801 HUBBLE 1 20580U 90037B 21147.48044072 .00000482 00000-0 18167-4 0 9999 2 20580 28.4690 203.8527 0002575 191.6422 188.2538 15.09647834508080 MET-2/21 1 22782U 93055A 21147.20587525 .00000015 00000-0 66234-6 0 9995 2 22782 82.5472 320.7756 0022201 354.5706 179.8735 13.83835391400589 AO-27 1 22825U 93061C 21146.47977135 -.00000010 00000-0 14120-4 0 9999 2 22825 98.9184 163.5558 0009562 98.0278 262.1989 14.30115222442849 IO-26 1 22826U 93061D 21147.29475518 .00000002 00000-0 18538-4 0 9996 2 22826 98.9125 164.3014 0010105 84.8197 275.4138 14.30454151443200 FO-29 1 24278U 96046B 21147.44917317 .00000019 00000-0 55950-4 0 9997 2 24278 98.5679 218.2085 0349943 203.9086 154.5457 13.53104419223408 NOAA-15 1 25338U 98030A 21147.31718057 .00000087 00000-0 55033-4 0 9993 2 25338 98.6832 176.0299 0010010 349.1833 10.9130 14.26032496197981 GO-32 1 25397U 98043D 21147.32227580 -.00000018 00000-0 11750-4 0 9992 2 25397 98.7700 92.9334 0002113 118.1742 241.9650 14.23708652188484 ISS 1 25544U 98067A 21147.91160304 .00000193 00000-0 11695-4 0 9998 2 25544 51.6435 83.0074 0003204 39.3042 71.4998 15.48926801285454 NO-44 1 26931U 01043C 21147.27454333 -.00000034 00000-0 18841-4 0 9999 2 26931 67.0513 335.0960 0006633 261.8060 98.2289 14.30619694 26203 SO-50 1 27607U 02058C 21147.42878333 .00000027 00000-0 24360-4 0 9998 2 27607 64.5568 42.6377 0038189 28.3974 331.9199 14.75750263991441 CO-55 1 27844U 03031E 21147.30162956 .00000056 00000-0 44547-4 0 9998 2 27844 98.6802 155.8358 0010748 135.1903 225.0145 14.22310433928974 CO-57 1 27848U 03031J 21147.28851927 .00000041 00000-0 38373-4 0 9996 2 27848 98.6858 156.3884 0010412 147.4193 212.7629 14.21887177928809 RS-22 1 27939U 03042A 21147.16934907 .00000093 00000-0 25361-4 0 9996 2 27939 98.1368 284.4162 0012525 355.0120 5.0951 14.66984315944403 NOAA-18 1 28654U 05018A 21147.40947815 .00000091 00000-0 73396-4 0 9994 2 28654 98.9948 212.1890 0013780 345.9889 14.0898 14.12609137825562 CO-58 1 28895U 05043F 21147.30550889 .00000144 00000-0 36516-4 0 9991 2 28895 98.0558 281.0092 0015357 277.4230 82.5228 14.63912269830918 Falconsat-3 1 30776U 07006E 21146.65624176 .00003497 00000-0 84997-4 0 9991 2 30776 35.4338 240.2973 0001689 59.1652 300.9242 15.40604952789741 CO-65 1 32785U 08021C 21147.29460081 .00000283 00000-0 35836-4 0 9993 2 32785 97.6100 126.9604 0014535 75.1502 285.1325 14.88715539709021 AAUSAT2 1 32788U 08021F 21147.21340391 .00000783 00000-0 75476-4 0 9998 2 32788 97.5047 142.7623 0011316 350.5283 9.5723 14.95569248710686 DO-64 1 32789U 08021G 21147.32765821 .00001628 00000-0 10695-3 0 9990 2 32789 97.3774 183.5078 0010894 207.2063 152.8596 15.08924427713641 CO-66 1 32791U 08021J 21147.22813706 .00000505 00000-0 55821-4 0 9992 2 32791 97.5702 132.8300 0014327 42.4605 317.7720 14.91396117709611 RS-30 1 32953U 08025A 21147.06082607 .00000028 00000-0 12906-3 0 9992 2 32953 82.5072 64.2346 0020598 26.4475 333.7662 12.43102132590323 PRISM 1 33493U 09002B 21147.14913044 .00000538 00000-0 51509-4 0 9994 2 33493 98.1867 108.6664 0014956 1.4712 358.6550 14.97638026671130 NOAA-19 1 33591U 09005A 21147.29982331 .00000069 00000-0 62900-4 0 9993 2 33591 99.1844 167.4806 0013827 187.6522 172.4440 14.12470222633933 SRMSAT 1 37841U 11058D 21147.50416745 .00000296 00000-0 17655-4 0 9990 2 37841 19.9728 67.6911 0011959 64.3628 91.7354 14.10695657496906 HRBE 1 37855U 11061F 21147.31897342 .00001264 00000-0 68073-4 0 9990 2 37855 101.7137 59.7640 0167122 133.5027 228.0216 15.07591626523464 RS-40 1 38735U 12041C 21147.33764679 .00000035 00000-0 18156-3 0 9996 2 38735 82.4744 146.2636 0018371 128.3717 231.9032 12.42583069400569 ZACUBE-1 1 39417U 13066B 21146.97224542 .00000206 00000-0 32088-4 0 9992 2 39417 97.5919 132.4137 0057317 230.6372 128.9756 14.81509384405890 GOMX-1 1 39430U 13066Q 21147.28100014 .00000180 00000-0 41523-4 0 9994 2 39430 97.8133 71.5674 0150047 180.9977 179.0938 14.59605751399955 LO-74 1 39440U 13066AA 21147.30445720 .00000235 00000-0 39563-4 0 9996 2 39440 97.6748 117.6941 0078568 304.8932 54.4911 14.76238843403305 AO-73 1 39444U 13066AE 21147.23955227 .00000279 00000-0 40285-4 0 9991 2 39444 97.5827 135.0278 0056549 219.9804 139.7241 14.82415330404299 SPROUT 1 39770U 14029E 21147.30024615 .00001062 00000-0 12061-3 0 9990 2 39770 97.9123 258.5928 0007674 282.5762 77.4588 14.88400463380192 DTUSAT-2 1 40030U 14033W 21147.52236437 .00000281 00000-0 35890-4 0 9995 2 40030 97.9162 74.7729 0010413 240.8663 119.1512 14.88983932376716 EO-80 1 40032U 14033Y 21147.55216931 .00000334 00000-0 41575-4 0 9993 2 40032 97.9168 74.8091 0010392 241.9255 118.0912 14.88940712376702 HODOYOSHI-1 1 40299U 14070B 21147.36367101 .00000904 00000-0 39289-4 0 9996 2 40299 97.2859 221.5130 0014615 66.0111 4.3634 15.24697394364207 FIREBIRD FU3 1 40377U 15003B 21147.32189935 .00002533 00000-0 95481-4 0 9999 2 40377 99.0966 284.1337 0117057 243.4447 115.4748 15.22255297349577 FIREBIRD FU4 1 40378U 15003C 21147.36472279 .00002517 00000-0 94744-4 0 9993 2 40378 99.0971 284.3229 0117155 243.1200 115.8018 15.22305275349597 GRIFEX 1 40379U 15003D 21147.30943658 .00001372 00000-0 59426-4 0 9998 2 40379 99.0926 273.7590 0127506 275.6927 82.9774 15.17960387348977 NO-84 1 40654U 15025D 21145.59529605 .00032089 00000-0 23628-3 0 263 2 40654 54.9790 149.5179 0081604 7.2671 352.9545 15.68332011 3469 XW-2A 1 40903U 15049E 21147.31780605 .00003323 00000-0 71682-4 0 9999 2 40903 97.2374 201.8641 0014448 92.0305 328.5103 15.45181622319530 XW-2C 1 40906U 15049H 21147.31107822 .00000996 00000-0 54198-4 0 9992 2 40906 97.4845 149.9287 0012705 260.2161 156.7368 15.16713997314363 XW-2D 1 40907U 15049J 21147.30993325 .00001095 00000-0 58737-4 0 9997 2 40907 97.4834 149.7158 0012023 256.2239 161.3732 15.17030705314391 LILACSAT-2 1 40908U 15049K 21147.27917263 .00000589 00000-0 35639-4 0 9994 2 40908 97.5032 147.5605 0013922 273.9338 212.4241 15.14423905314029 XW-2E 1 40909U 15049L 21147.29840545 .00001407 00000-0 69493-4 0 9990 2 40909 97.4648 153.6863 0011535 240.1025 178.2166 15.19485462314726 XW-2F 1 40910U 15049M 21147.29436523 .00001353 00000-0 67873-4 0 9999 2 40910 97.4709 152.7590 0012619 239.9421 175.9611 15.18986879314516 XW-2B 1 40911U 15049N 21147.25747091 .00001067 00000-0 57429-4 0 9999 2 40911 97.4837 150.3475 0011958 257.2430 225.1392 15.16947623314272 DCBB 1 40912U 15049P 21147.27471351 .00001662 00000-0 76797-4 0 9995 2 40912 97.4436 157.1068 0013203 209.9862 280.1583 15.21516828314974 TW-1A 1 40928U 15051D 21147.35807038 .00004427 00000-0 93411-4 0 9993 2 40928 97.0770 172.7689 0010205 23.1216 33.4049 15.45675792318431 IO-86 1 40931U 15052B 21144.29670095 .00000668 00000-0 39329-5 0 9991 2 40931 5.9964 64.6623 0013348 58.2989 301.8399 14.76675441305724 ATHENOXAT-1 1 41168U 15077C 21147.13611808 .00002415 00000-0 87360-4 0 9993 2 41168 14.9855 57.7185 0010542 239.5866 158.0929 15.15641482301542 ChubuSat-2 1 41338U 16012B 21147.18074751 .00000373 00000-0 22030-4 0 9991 2 41338 31.0039 321.1738 0013822 282.7873 77.1218 15.00523337289403 ChubuSat-3 1 41339U 16012C 21147.07283095 .00000450 00000-0 27956-4 0 9991 2 41339 31.0124 319.1073 0013735 290.2274 69.6903 15.00671892289384 Horyu-4 1 41340U 16012D 21146.81976599 .00000532 00000-0 33123-4 0 9996 2 41340 31.0055 304.5578 0013931 317.6697 42.2863 15.01879448289535 e-st@r-II 1 41459U 16025D 21147.18347323 .00003865 00000-0 18941-3 0 9991 2 41459 98.1379 282.1186 0161701 134.0678 227.4007 15.08010131279218 AAUSAT4 1 41460U 16025E 21147.25588451 .00004995 00000-0 23253-3 0 9997 2 41460 98.1387 285.9653 0148712 118.1956 243.4420 15.11072743279519 LO-87 1 41557U 16033B 21147.32878715 .00001742 00000-0 63698-4 0 9991 2 41557 97.3918 241.3847 0011526 316.3108 129.3811 15.29381853278307 NuSat2 1 41558U 16033C 21147.35020167 .00001672 00000-0 57499-4 0 9999 2 41558 97.4022 245.1280 0010468 309.6510 90.8315 15.31472018278492 Lapan A3 1 41603U 16040E 21147.32357963 .00000286 00000-0 16271-4 0 9995 2 41603 97.2574 195.0571 0015306 78.0452 346.6448 15.20027497273373 Pratham 1 41783U 16059A 21147.40153186 .00000073 00000-0 23224-4 0 9994 2 41783 97.9657 198.2272 0032420 314.1110 45.7426 14.63138756249176 TY-1 1 41844U 16066D 21147.33357706 .00001132 00000-0 47140-4 0 9996 2 41844 97.3988 157.7711 0013592 205.2614 211.4856 15.25736793252684 CAS-2T 1 41847U 16066G 21147.39445840 .00000076 00000-0 22672-4 0 9991 2 41847 98.6025 206.4333 0364099 283.3090 72.7743 14.38189073238853 EO-88 1 42017U 17008BX 21147.14865163 .00001993 00000-0 75405-4 0 9996 2 42017 97.3166 215.1296 0006287 168.0871 192.0519 15.28086745238004 CAS-4B 1 42759U 17034B 21147.25785836 .00000446 00000-0 40146-4 0 9994 2 42759 43.0170 297.6066 0008753 22.4015 40.8512 15.10208147217949 CAS-4A 1 42761U 17034D 21146.93473171 .00000584 00000-0 48368-4 0 9994 2 42761 43.0184 298.4540 0009272 21.7304 125.1175 15.10292466217896 NIUSat 1 42766U 17036B 21147.35217384 .00001276 00000-0 57602-4 0 9990 2 42766 97.2517 194.0579 0013371 247.3019 112.6805 15.22678891218007 Aalto 1 1 42775U 17036L 21147.39004130 .00001013 00000-0 46380-4 0 9997 2 42775 97.2486 194.3544 0011905 245.9980 114.0011 15.22639190217990 URSA MAIOR 1 42776U 17036M 21147.39610718 .00001131 00000-0 51066-4 0 9991 2 42776 97.2500 194.8140 0011701 245.1669 114.8351 15.22896662218013 Max Valier Sat 1 42778U 17036P 21147.41864601 .00001255 00000-0 55309-4 0 9999 2 42778 97.2565 196.7179 0010173 246.7117 113.3051 15.23555392218087 Pegasus 1 42784U 17036V 21147.16932297 .00001482 00000-0 63275-4 0 9998 2 42784 97.2519 196.9349 0009761 251.7571 108.2605 15.24366845218111 NUDATSat 1 42787U 17036Y 21147.59588372 .00002962 00000-0 11694-3 0 9990 2 42787 97.2559 199.6823 0008605 245.2439 114.7909 15.26269205218159 SUCHAI 1 1 42788U 17036Z 21147.17932376 .00001812 00000-0 75025-4 0 9994 2 42788 97.2530 197.9053 0009287 248.0647 111.9604 15.25143658218247 SKCUBE 1 42789U 17036AA 21147.40170125 .00001695 00000-0 70910-4 0 9994 2 42789 97.2523 197.8434 0009209 247.9651 112.0610 15.24887187218182 VZLUSAT 1 1 42790U 17036AB 21147.39293489 .00002289 00000-0 91032-4 0 9991 2 42790 97.2550 199.4765 0008626 241.5124 118.5246 15.26243559218273 VENTA 1 1 42791U 17036AC 21147.38209402 .00001583 00000-0 66507-4 0 9998 2 42791 97.2520 197.8411 0008906 248.5630 111.4658 15.24836934218172 Robusta 1B 1 42792U 17036AD 21147.11134318 .00001641 00000-0 68279-4 0 9996 2 42792 97.2526 197.9331 0008768 248.9151 111.1150 15.25118573218176 D-SAT 1 42794U 17036AF 21147.02529519 .00000164 00000-0 19686-4 0 9996 2 42794 97.4623 168.0537 0124084 297.9302 60.9400 14.91561949213868 TechnoSat 1 42829U 17042E 21147.38549754 .00000333 00000-0 38715-4 0 9996 2 42829 97.4717 18.0403 0013208 212.4775 147.5633 14.91279251210542 QIKCOM-1 1 42983U 98067NF 21147.21564563 .00006979 00000-0 70816-4 0 9990 2 42983 51.6374 7.2616 0002447 261.0478 99.0241 15.66507292204072 AO-91 1 43017U 17073E 21147.50388816 .00001077 00000-0 87905-4 0 9995 2 43017 97.7086 52.3185 0255423 9.1017 351.4696 14.79526288190025 EcAMSat 1 43019U 98067NG 21147.22810249 .00024726 00000-0 14360-3 0 9998 2 43019 51.6381 334.3769 0002571 247.5060 112.5669 15.78363126286836 PICSAT 1 43132U 18004X 21147.46618983 .00001810 00000-0 73673-4 0 9996 2 43132 97.4094 222.1972 0007384 284.8154 75.2266 15.25789750187482 AO-92 1 43137U 18004AC 21147.20771845 .00001372 00000-0 57525-4 0 9991 2 43137 97.4072 221.4558 0007159 289.6936 70.3529 15.25198311187425 TianYi 2 1 43155U 18008A 21147.34987613 .00000931 00000-0 57095-4 0 9994 2 43155 97.4027 212.9524 0018601 46.0884 16.2798 15.12401515184887 Zhou Enlai 1 43156U 18008B 21147.34488157 .00000895 00000-0 55672-4 0 9992 2 43156 97.4070 212.7819 0015807 46.3233 14.1942 15.12003799184821 TianYi 6 1 43158U 18008D 21147.14538655 .00000834 00000-0 52962-4 0 9993 2 43158 97.4017 211.1928 0014899 45.4180 7.6055 15.11437376184721 S-Net D 1 43186U 18014G 21147.50246271 .00000528 00000-0 50814-4 0 9995 2 43186 97.6796 55.4646 0011808 144.0386 216.1633 14.97056306181162 S-Net B 1 43187U 18014H 21147.50237383 .00000527 00000-0 50708-4 0 9991 2 43187 97.6794 55.4318 0011813 143.9653 216.2367 14.97055794181163 S-Net A 1 43188U 18014J 21147.50240869 .00000535 00000-0 51365-4 0 9994 2 43188 97.6797 55.4755 0011806 144.0698 216.1320 14.97054564181167 S-Net C 1 43189U 18014K 21147.50288804 .00000487 00000-0 47209-4 0 9994 2 43189 97.6793 55.4250 0011802 143.9931 216.2088 14.97054630179712 FMN 1 1 43192U 18015A 21147.32243576 .00002830 00000-0 10645-3 0 9993 2 43192 97.4854 282.5915 0013329 322.4089 122.1537 15.27922746184364 Shaonian Xing 1 43199U 18015H 21147.33870355 .00002044 00000-0 78709-4 0 9995 2 43199 97.4629 279.8404 0014799 333.1432 107.2302 15.27446103184425 SurfSat 1 43614U 18070B 21147.19502331 .00004013 00000-0 94024-4 0 9994 2 43614 93.0292 297.1383 0016870 87.6719 272.6468 15.41993157151397 CP-7 DAVE 1 43615U 18070C 21147.33819759 .00003965 00000-0 93750-4 0 9996 2 43615 93.0295 297.1562 0017043 87.1044 273.2161 15.41712589151406 ELFIN-B 1 43616U 18070D 21147.14091071 .00006514 00000-0 14008-3 0 9996 2 43616 93.0250 297.2388 0016797 86.3853 273.9325 15.44518625151484 ELFIN-A 1 43617U 18070E 21147.36600997 .00007206 00000-0 15262-3 0 9996 2 43617 93.0299 298.1591 0016074 82.8731 277.4353 15.44972045151534 STARS-Me Mother 1 43640U 98067PQ 21146.67684931 .00189537 25863-4 39607-3 0 9994 2 43640 51.6229 342.7229 0005831 255.8848 104.1513 15.98583319150823 CubeBel 1 1 43666U 18083E 21147.35444649 .00001376 00000-0 68378-4 0 9992 2 43666 97.4558 175.9879 0012911 239.2935 133.3593 15.19289900142815 Changshagaoxin 1 43669U 18083H 21147.34235318 .00001142 00000-0 59307-4 0 9998 2 43669 97.4473 173.1155 0009045 232.0967 223.3091 15.18079894142687 Ten-Koh 1 43677U 18084G 21147.57660267 .00000126 00000-0 18780-4 0 9999 2 43677 97.9173 270.5639 0017449 102.8388 257.4781 14.90461845140193 PO-101 1 43678U 18084H 21147.25736630 .00000511 00000-0 56427-4 0 9991 2 43678 97.9186 272.4280 0011305 116.1796 244.0587 14.91752114140275 IRVINE 01 1 43693U 18088D 21147.43259471 .00003734 00000-0 14536-3 0 9999 2 43693 85.0361 208.9250 0019203 102.3903 257.9491 15.25456242141233 QO-100 1 43700U 18090A 21147.24638833 .00000143 00000-0 00000 0 0 9991 2 43700 0.0166 8.3857 0001514 77.0907 274.0275 1.00271781 9408 Reaktor Hello World 1 43743U 18096AA 21147.17673981 .00001564 00000-0 58505-4 0 9995 2 43743 97.3863 224.8507 0016952 357.8981 2.2185 15.28730032138888 MinXSS-2 1 43758U 18099A 21147.16698225 .00000155 00000-0 18902-4 0 9993 2 43758 97.6677 218.8004 0016953 117.4896 242.8051 14.96041249135331 AO-95 1 43770U 18099N 21147.37113160 -.00000004 00000-0 47919-5 0 9995 2 43770 97.6656 218.0231 0015789 125.0210 235.2495 14.95309178135309 RANGE-B 1 43772U 18099Q 21147.47062158 .00000832 00000-0 79877-4 0 9993 2 43772 97.6740 219.0829 0015672 113.4889 246.7981 14.95604257135328 RANGE-A 1 43773U 18099R 21147.44200089 -.00000110 00000-0 -48208-5 0 9994 2 43773 97.6590 217.4367 0014922 113.0183 247.2613 14.95204383135303 MOVE-II 1 43780U 18099Y 21147.14042043 .00001086 00000-0 10198-3 0 9999 2 43780 97.6673 218.3068 0014963 123.0409 237.2252 14.95902594135282 SNUSat 2 1 43782U 18099AA 21147.47416609 .00000803 00000-0 77458-4 0 9999 2 43782 97.6655 218.4575 0014329 112.1252 248.1492 14.95551280135334 SnugLite 1 43784U 18099AC 21147.14981182 .00000771 00000-0 74297-4 0 9990 2 43784 97.6621 217.8724 0016569 120.0372 240.2495 14.95676333135307 ITASat 1 1 43786U 18099AE 21147.16069725 .00000304 00000-0 32437-4 0 9996 2 43786 97.6678 218.4803 0016602 119.3122 240.9761 14.95606680135309 EAGLET 1 1 43790U 18099AJ 21147.46771460 .00000447 00000-0 44954-4 0 9995 2 43790 97.6663 219.1845 0014819 122.2694 237.9966 14.95954746135073 ESEO 1 43792U 18099AL 21147.44941569 -.00000204 00000-0 -13152-4 0 9993 2 43792 97.6630 218.7755 0014566 119.2958 240.9721 14.95733602135127 CSIM 1 43793U 18099AM 21147.28561682 .00001226 00000-0 11255-3 0 9994 2 43793 97.6663 218.9665 0014756 116.1667 244.1074 14.96565611135109 Astrocast 0.1 1 43798U 18099AS 21147.15309526 .00000978 00000-0 91739-4 0 9991 2 43798 97.6672 219.0634 0014128 104.3138 255.9653 14.96173776135332 JO-97 1 43803U 18099AX 21147.19494256 .00000525 00000-0 51966-4 0 9993 2 43803 97.6634 218.2683 0016488 119.8379 240.4484 14.95845498135316 Suomi 100 1 43804U 18099AY 21147.46761115 .00000695 00000-0 67258-4 0 9994 2 43804 97.6632 218.5034 0016646 119.0760 241.2131 14.95818104135367 Al Farabi 2 1 43805U 18099AZ 21147.33795974 .00000587 00000-0 57285-4 0 9990 2 43805 97.6643 218.5885 0016855 119.3879 240.9028 14.96030777135353 CHOMPTT 1 43855U 18104G 21147.17903194 .00001388 00000-0 55607-4 0 9995 2 43855 85.0346 307.6073 0015554 219.1464 140.8655 15.23926340135852 ISAT 1 43879U 18111D 21147.26823524 -.00000047 00000-0 97070-6 0 9991 2 43879 97.6853 54.8998 0012759 166.9277 193.2293 14.96609303129884 UWE-4 1 43880U 18111E 21147.46017697 -.00000023 00000-0 30382-5 0 9997 2 43880 97.6882 55.5503 0012218 168.1181 192.0332 14.96851169131946 Sparrow 1 43881U 18111F 21147.49855184 .00000952 00000-0 87871-4 0 9996 2 43881 97.6897 55.7152 0012698 163.4278 196.7361 14.96910920131957 Lume 1 1 43908U 18111AJ 21147.28304169 .00001557 00000-0 62652-4 0 9997 2 43908 97.2354 42.6692 0020894 11.5804 348.5911 15.26174225134449 FO-98 1 43933U 19003B 21147.38992553 .00010465 00000-0 40181-3 0 9997 2 43933 97.1838 189.5848 0018403 107.7359 252.5891 15.26473893130892 FO-99 1 43937U 19003F 21147.40039334 .00001983 00000-0 79932-4 0 9995 2 43937 97.1780 191.4251 0025094 87.7629 272.6483 15.25672294131057 MYSat 1 1 44045U 18092F 21147.31398467 .00002912 00000-0 82346-4 0 9994 2 44045 51.6361 169.3248 0010471 126.1377 234.0578 15.39767852128209 AstroCast 0.2 1 44083U 19018F 21147.40914575 .00001470 00000-0 66282-4 0 9998 2 44083 97.3740 208.8828 0014119 51.7700 308.4805 15.22522688119698 AISTechSat 3 1 44103U 19018AB 21147.32475881 .00001256 00000-0 54593-4 0 9998 2 44103 97.3599 209.1796 0014822 62.4399 359.8944 15.24026057119791 AISat 1 1 44104U 19018AC 21147.31118439 .00001422 00000-0 46225-4 0 9999 2 44104 97.4260 224.5193 0058318 71.2858 289.4701 15.32028759120438 Raavana-1 1 44329U 98067QE 21146.92709236 .00041002 00000-0 26752-3 0 9996 2 44329 51.6361 36.0400 0004506 183.3800 176.7170 15.75433273110761 Uguisu 1 44330U 98067QF 21146.98125418 .00039427 00000-0 26283-3 0 9995 2 44330 51.6323 36.3130 0004550 184.4197 175.6763 15.74956017110743 NepaliSat-1 1 44331U 98067QG 21146.98517609 .00040758 00000-0 26681-3 0 9994 2 44331 51.6337 35.5868 0004481 184.8998 175.1958 15.75359948110768 Prox-1 1 44339U 19036A 21147.56588155 .00000925 00000-0 16755-3 0 9993 2 44339 23.9999 105.7564 0010191 313.4556 46.5088 14.53563159102133 Oculus-ASR 1 44348U 19036K 21147.01961501 .00008230 00000-0 10895-3 0 9999 2 44348 28.5121 276.4075 0332623 35.1835 327.0251 15.11517246105660 Armadillo 1 44352U 19036P 21147.36135951 .00014409 00000-0 18100-3 0 9996 2 44352 28.5268 254.4075 0303681 69.2390 294.0467 15.18710862105869 NO-104 1 44354U 19036R 21147.00371656 .00008617 00000-0 11149-3 0 9993 2 44354 28.5275 269.9908 0327782 43.6305 318.9725 15.13000861105729 NO-103 1 44355U 19036S 21147.51928431 .00027994 00000-0 30982-3 0 9994 2 44355 28.5218 224.8360 0268431 117.1092 245.7149 15.28390819106228 CP9 1 44360U 19036X 21147.33319134 .00065810 -55250-5 45713-3 0 9994 2 44360 28.5032 165.8344 0195531 214.7530 144.0161 15.51075446106660 Move-IIb 1 44398U 19038N 21147.55229279 .00002014 00000-0 11513-3 0 9996 2 44398 97.5826 111.6526 0025239 25.9005 334.3480 15.13593106104601 SONATE 1 44400U 19038Q 21147.54188712 .00000989 00000-0 60218-4 0 9991 2 44400 97.5881 111.5342 0025702 25.7086 334.5414 15.12520379104579 BeeSat 9 1 44412U 19038AC 21147.17817887 .00001208 00000-0 71369-4 0 9999 2 44412 97.5868 111.4301 0023169 31.3559 328.9048 15.13229229104238 JAISAT-1 1 44419U 19038F 21147.15473985 .00001285 00000-0 74726-4 0 9996 2 44419 97.5871 111.9374 0021986 29.8963 330.3519 15.13714256104576 LightSail-2 1 44420U 19036AC 21147.53245703 .00001361 00000-0 23294-3 0 9991 2 44420 24.0051 86.6827 0006776 319.6206 40.3783 14.60008806100557 Taurus 1 1 44530U 19059C 21147.13804230 .00000610 00000-0 18365-3 0 9999 2 44530 98.5492 237.2988 0013449 198.9662 161.1035 14.46047051 90004 Duchifat 3 1 44854U 19089C 21147.28494868 .00000534 00000-0 49032-4 0 9990 2 44854 36.9657 225.8189 0009418 324.7187 35.2984 14.99483069 79923 OPS-SAT 1 44878U 19092F 21147.07547454 .00000869 00000-0 48019-4 0 9992 2 44878 97.4749 330.8828 0012302 241.0854 118.9145 15.16483735 79599 TO-108 1 44881U 19093C 21147.19144390 .00000067 00000-0 15294-4 0 9991 2 44881 97.9234 226.2491 0015376 8.6167 351.5311 14.81450402 77582 FloripaSat 1 1 44885U 19093G 21147.15699905 .00000367 00000-0 52556-4 0 9993 2 44885 97.9249 226.7667 0015001 17.0216 343.1498 14.82288142 77614 RS-44 1 44909U 19096E 21147.28370610 -.00000007 00000-0 -77380-4 0 9991 2 44909 82.5185 126.8785 0218037 142.3531 219.3060 12.79709991 66113 SwampSat-2 1 45115U 19071E 21147.28967809 .00041120 00000-0 67251-3 0 9990 2 45115 51.6346 121.2250 0003608 224.5210 135.5490 15.52100871 74153 HO-107 1 45119U 19071J 21147.33322911 .00002085 00000-0 70112-4 0 9997 2 45119 51.6404 139.2869 0010815 212.0040 148.0287 15.35673893 73925 Phoenix 1 45258U 98067RB 21147.49971078 .00008588 00000-0 12657-3 0 9997 2 45258 51.6406 73.7346 0005587 165.0114 195.1044 15.56279459 71949 AztechSat-1 1 45261U 98067RE 21147.46871577 .00026814 00000-0 27974-3 0 9991 2 45261 51.6376 64.5161 0005631 177.3688 182.7338 15.64299056 72093 QARMAN 1 45263U 98067RG 21147.33797164 .00018049 00000-0 21729-3 0 9991 2 45263 51.6396 69.6614 0005688 174.2163 185.8897 15.60873946 72043 Quetzal 1 1 45598U 98067RL 21147.16406119 .00014439 00000-0 18782-3 0 9994 2 45598 51.6410 74.5203 0000241 315.4395 44.6579 15.59031175 61232 BY70-2 1 45857U 20042B 21147.16971155 .00001494 00000-0 21937-3 0 9990 2 45857 97.9823 223.1382 0009027 283.7436 76.2773 14.76976071 48407 UPMSat 2 1 46276U 20061E 21147.23668342 .00000584 00000-0 33385-4 0 9996 2 46276 97.4328 221.4406 0003080 85.0338 275.1247 15.16443602 40326 AmicalSat 1 46287U 20061R 21147.17638793 .00000588 00000-0 39580-4 0 9995 2 46287 97.4881 220.9085 0003526 142.6965 217.4510 15.10442649 40135 SALSAT 1 46495U 20068K 21147.56276091 .00000799 00000-0 63059-4 0 9997 2 46495 97.6933 85.1819 0018091 139.6329 220.6242 15.03453380 36190 BY70-3 1 46839U 20079N 21147.24095872 .00002891 00000-0 91490-4 0 9997 2 46839 97.2404 221.5184 0005127 286.8110 156.8565 15.33556547 30959 SPOC 1 46921U 98067RR 21147.11146137 .00007148 00000-0 11560-3 0 9997 2 46921 51.6426 82.4295 0002325 28.8382 331.2737 15.54011598 31549 Bobcat-1 1 46922U 98067RS 21147.21219491 .00010779 00000-0 16139-3 0 9994 2 46922 51.6435 80.8685 0002300 42.0021 318.1146 15.55538520 31533 Neutron-1 1 46923U 98067RT 21147.51115625 .00008312 00000-0 13377-3 0 9993 2 46923 51.6428 80.5969 0002497 41.6328 318.4853 15.53897183 31630 CAPE 3 1 47309U 21002A 21147.34218947 .00001246 00000-0 67509-4 0 9995 2 47309 60.6875 10.8782 0039202 37.7440 322.6384 15.20720274 19675 AO-109 1 47311U 21002C 21147.33083072 .00000802 00000-0 46933-4 0 9991 2 47311 60.6873 10.2672 0033833 37.1464 323.1954 15.21602212 19651 MiTEE 1 1 47314U 21002F 21147.35621823 .00002557 00000-0 11811-3 0 9993 2 47314 60.6858 9.2226 0032528 28.1794 332.1045 15.23013609 19699 ExoCube 2 1 47319U 21002L 21147.36194929 .00001549 00000-0 80000-4 0 9998 2 47319 60.6845 10.3998 0035838 38.0832 322.2777 15.21224681 19626 UVSQ-SAT 1 47438U 21006AB 21147.41822898 .00000894 00000-0 54062-4 0 9994 2 47438 97.4885 209.0175 0013245 163.9909 196.1743 15.13095960 18879 YUSAT 1 1 47439U 21006AC 21147.42034408 .00001053 00000-0 63062-4 0 9996 2 47439 97.4887 209.0173 0013130 164.1740 195.9904 15.13081452 18876 SOMP 2b 1 47445U 21006AJ 21147.43038997 .00000879 00000-0 53457-4 0 9993 2 47445 97.4857 208.9543 0012757 167.3170 192.8384 15.12939330 18879 IDEASSat 1 47458U 21006AX 21147.44140514 .00000923 00000-0 56213-4 0 9990 2 47458 97.4948 209.0908 0011932 164.6140 195.5456 15.12802225 18874 RSP-01 1 47925U 98067SB 21147.11102515 .00007614 00000-0 13552-3 0 9995 2 47925 51.6433 86.1599 0001707 351.9177 8.1784 15.51186729 11462 TAUSAT-1 1 47926U 98067SC 21147.54328649 .00011846 00000-0 20232-3 0 9996 2 47926 51.6430 83.7972 0002696 342.3057 17.7839 15.51757156 11529 Tsuru 1 47927U 98067SD 21147.24236607 .00007440 00000-0 13316-3 0 9996 2 47927 51.6433 85.5370 0001705 347.6573 12.4375 15.51067241 11487 STARS-EC 1 47928U 98067SE 21147.30869664 .00010632 00000-0 18631-3 0 9991 2 47928 51.6429 85.2257 0006443 41.6056 318.5422 15.51147271 11479 Maya-2 1 47929U 98067SF 21147.11197382 .00006818 00000-0 12257-3 0 9991 2 47929 51.6432 86.1663 0001723 341.8891 18.2037 15.51095902 11427 OPUSAT-II 1 47930U 98067SG 21147.55626453 .00013617 00000-0 23329-3 0 9994 2 47930 51.6435 83.8845 0001504 346.1256 13.9692 15.51525206 11534 GuaraniSat-1 1 47931U 98067SH 21147.11134610 .00006839 00000-0 12286-3 0 9994 2 47931 51.6434 86.1626 0001739 340.1730 19.9192 15.51108924 11465 CubeSX-Sirius-HSE 1 47951U 21022V 21147.26215719 .00000688 00000-0 51718-4 0 9999 2 47951 97.5623 49.8434 0023400 28.1811 69.5900 15.05638322 9869 CubeSX-HSE 1 47952U 21022W 21147.26073580 .00000659 00000-0 49647-4 0 9994 2 47952 97.5615 49.8438 0023265 27.7159 71.4105 15.05676595 9867 KSU-Cubesat 1 47954U 21022Y 21147.23928421 .00000224 00000-0 19650-4 0 9995 2 47954 97.5612 49.8323 0022590 27.3300 332.9110 15.05751188 9585 GRBAlpha 1 47959U 21022AD 21147.26438853 .00000679 00000-0 51056-4 0 9998 2 47959 97.5620 49.8527 0023120 28.2565 89.7705 15.05674208 8682 Orbicraft-Zorkiy 1 47960U 21022AE 21147.33196694 .00000611 00000-0 46238-4 0 9994 2 47960 97.5629 49.9349 0022920 27.7613 111.5897 15.05738942 9381 STECCO 1 47962U 21022AG 21147.35470449 .00001741 00000-0 12085-3 0 9998 2 47962 97.5582 50.0281 0017618 25.9524 111.4238 15.06760463 8693 DO-111 1 47963U 21022AH 21147.44896907 .00001800 00000-0 12337-3 0 9996 2 47963 97.5607 50.1545 0020700 21.9833 338.2278 15.07156977 8739 MO-110 1 47964U 21022AJ 21147.45115978 .00000865 00000-0 61676-4 0 9991 2 47964 97.5600 50.1498 0020629 21.5906 338.6187 15.07021552 8718 /EX